01/07/2015,	00:00:00,	18.75,	20.20,	1030.40,	47.83,	0.47,	1155.95,	676.58,	1590.43,	222.39,	4.68,	1.13,	4.52,	1.01,	5.78,	1.06,	6.56,	1.26,	1.13,	0.49,	0.89,	0.39,	1.00,	0.48,	1.09,	0.51,	124.26,	294.55,	168.80,	284.84,	167.23,	276.53,	176.77,	307.40,	167.09
01/07/2015,	00:15:00,	18.75,	20.30,	1030.70,	47.42,	0.45,	1157.51,	676.55,	1591.43,	223.02,	4.62,	1.08,	4.47,	0.99,	5.85,	1.06,	6.32,	1.12,	1.19,	0.52,	0.91,	0.42,	1.00,	0.52,	1.08,	0.48,	123.43,	296.71,	169.56,	284.28,	167.50,	276.27,	175.97,	307.53,	166.77
01/07/2015,	00:30:00,	18.80,	20.30,	1030.52,	47.61,	0.45,	1160.44,	679.29,	1596.10,	224.10,	4.67,	1.11,	4.41,	1.02,	5.81,	1.15,	6.51,	1.24,	1.15,	0.51,	0.93,	0.41,	0.97,	0.47,	1.11,	0.50,	123.83,	296.76,	170.28,	284.92,	167.62,	277.78,	177.12,	308.29,	167.60
01/07/2015,	00:45:00,	18.77,	20.50,	1030.64,	47.78,	0.48,	1156.36,	678.59,	1591.68,	223.90,	4.59,	1.14,	4.49,	1.00,	5.76,	1.05,	6.40,	1.22,	1.15,	0.52,	0.88,	0.41,	1.00,	0.51,	1.02,	0.47,	124.16,	295.93,	169.45,	283.74,	167.89,	277.49,	177.45,	306.43,	167.02
01/07/2015,	01:00:00,	18.73,	20.60,	1030.64,	47.81,	0.45,	1151.20,	677.26,	1585.56,	223.61,	4.56,	1.09,	4.54,	1.01,	5.73,	1.11,	6.35,	1.22,	1.19,	0.53,	0.87,	0.44,	0.96,	0.45,	1.06,	0.47,	124.11,	295.48,	169.78,	282.43,	167.88,	273.66,	175.92,	306.94,	166.92
01/07/2015,	01:15:00,	18.75,	20.60,	1030.52,	47.68,	0.46,	1152.53,	677.57,	1588.17,	222.42,	4.61,	1.10,	4.48,	1.02,	5.75,	1.10,	6.48,	1.24,	1.14,	0.50,	0.86,	0.39,	1.04,	0.50,	1.11,	0.48,	123.84,	295.74,	170.09,	283.42,	167.74,	275.60,	176.37,	305.08,	166.63
01/07/2015,	01:30:00,	18.82,	20.60,	1030.27,	47.60,	0.46,	1151.27,	679.85,	1588.10,	223.42,	4.62,	1.06,	4.34,	0.98,	5.97,	1.11,	6.33,	1.18,	1.09,	0.48,	0.90,	0.39,	1.00,	0.50,	1.13,	0.48,	123.63,	293.90,	169.65,	283.10,	168.43,	275.32,	177.50,	306.21,	167.49
01/07/2015,	01:45:00,	18.80,	20.80,	1030.03,	47.90,	0.51,	1145.93,	678.80,	1581.89,	223.07,	4.45,	1.08,	4.51,	1.01,	5.90,	1.12,	6.69,	1.23,	1.15,	0.51,	0.95,	0.45,	1.02,	0.50,	1.15,	0.55,	124.24,	293.13,	169.62,	280.97,	168.07,	275.46,	177.25,	303.84,	167.10
01/07/2015,	02:00:00,	18.80,	20.90,	1029.97,	47.57,	0.46,	1149.83,	679.49,	1586.24,	223.65,	4.59,	1.14,	4.48,	1.00,	6.00,	1.19,	6.25,	1.23,	1.13,	0.52,	0.88,	0.40,	1.04,	0.50,	1.15,	0.52,	123.62,	294.22,	170.36,	282.57,	167.43,	275.53,	177.77,	304.97,	167.30
01/07/2015,	02:15:00,	18.82,	20.90,	1029.85,	47.66,	0.45,	1146.98,	676.65,	1580.90,	223.20,	4.69,	1.10,	4.41,	0.92,	5.81,	1.13,	6.36,	1.17,	1.11,	0.49,	0.93,	0.43,	0.97,	0.45,	1.01,	0.45,	123.91,	293.83,	169.87,	281.30,	166.80,	275.24,	176.83,	303.86,	166.29
01/07/2015,	02:30:00,	18.90,	21.00,	1029.48,	47.82,	0.45,	1145.15,	678.99,	1580.62,	223.92,	4.71,	1.08,	4.44,	1.04,	5.74,	1.09,	6.54,	1.23,	1.09,	0.49,	0.91,	0.43,	0.98,	0.44,	1.12,	0.50,	124.56,	292.10,	170.11,	281.98,	167.28,	274.81,	177.37,	303.52,	167.54
01/07/2015,	02:45:00,	18.80,	21.00,	1028.87,	47.62,	0.44,	1144.29,	676.51,	1578.70,	222.67,	4.56,	1.09,	4.58,	1.03,	5.79,	1.10,	6.27,	1.22,	1.15,	0.48,	0.88,	0.41,	1.00,	0.47,	1.09,	0.48,	124.06,	292.05,	169.61,	280.74,	167.09,	274.37,	176.24,	304.45,	166.79
01/07/2015,	03:00:00,	18.87,	21.10,	1028.75,	47.75,	0.50,	1146.67,	679.16,	1582.26,	223.79,	4.70,	1.10,	4.53,	1.06,	5.88,	1.08,	6.60,	1.31,	1.17,	0.52,	0.93,	0.43,	1.02,	0.52,	1.14,	0.52,	124.00,	292.18,	170.05,	281.48,	167.76,	276.14,	177.32,	304.43,	167.38
01/07/2015,	03:15:00,	18.82,	21.10,	1028.26,	47.67,	0.43,	1149.22,	678.09,	1584.08,	223.46,	4.50,	1.04,	4.58,	1.03,	5.74,	1.03,	6.58,	1.19,	1.13,	0.49,	0.90,	0.38,	0.98,	0.47,	1.12,	0.50,	124.14,	292.28,	169.65,	281.34,	168.19,	276.68,	176.96,	306.18,	166.49
01/07/2015,	03:30:00,	18.80,	21.20,	1028.44,	47.76,	0.48,	1146.03,	679.22,	1582.22,	223.47,	4.57,	1.12,	4.59,	1.09,	5.87,	1.10,	6.40,	1.20,	1.20,	0.52,	0.92,	0.43,	1.03,	0.47,	1.07,	0.49,	124.06,	292.52,	169.13,	280.94,	167.97,	275.10,	177.79,	304.86,	167.63
01/07/2015,	03:45:00,	18.82,	21.30,	1027.89,	47.78,	0.42,	1144.40,	677.94,	1579.32,	223.47,	4.60,	1.13,	4.44,	1.02,	5.84,	1.10,	6.52,	1.23,	1.14,	0.47,	0.83,	0.38,	1.04,	0.52,	1.07,	0.48,	124.64,	290.86,	169.85,	281.76,	168.13,	275.35,	175.53,	303.80,	167.69
01/07/2015,	04:00:00,	18.85,	21.10,	1027.59,	47.53,	0.45,	1143.70,	679.14,	1579.36,	223.74,	4.66,	1.08,	4.67,	1.06,	5.81,	1.06,	6.22,	1.15,	1.19,	0.51,	0.97,	0.45,	1.03,	0.50,	1.14,	0.52,	124.03,	291.25,	169.93,	280.62,	168.32,	274.67,	176.52,	304.42,	167.55
01/07/2015,	04:15:00,	18.92,	21.30,	1027.53,	47.63,	0.49,	1149.29,	680.94,	1586.44,	223.85,	4.69,	1.09,	4.60,	1.03,	6.05,	1.13,	6.47,	1.25,	1.11,	0.51,	0.92,	0.42,	1.02,	0.52,	1.17,	0.53,	123.99,	292.71,	170.64,	281.97,	168.50,	275.26,	176.76,	306.84,	168.28
01/07/2015,	04:30:00,	18.90,	21.40,	1027.34,	47.62,	0.46,	1143.68,	677.24,	1578.66,	222.62,	4.72,	1.10,	4.53,	1.00,	5.79,	1.09,	6.38,	1.22,	1.14,	0.49,	0.90,	0.41,	1.01,	0.50,	1.15,	0.53,	124.00,	291.64,	169.93,	280.79,	167.58,	275.41,	176.19,	303.08,	166.85
01/07/2015,	04:45:00,	18.92,	21.40,	1026.98,	47.44,	0.47,	1144.16,	681.51,	1581.81,	224.13,	4.59,	1.10,	4.47,	0.98,	5.92,	1.11,	6.56,	1.23,	1.23,	0.57,	0.89,	0.42,	1.00,	0.49,	1.09,	0.51,	123.47,	291.47,	170.34,	280.07,	168.13,	275.92,	178.07,	304.00,	168.23
01/07/2015,	05:00:00,	18.90,	21.50,	1027.10,	48.15,	0.45,	1142.46,	677.94,	1578.00,	223.06,	4.58,	1.10,	4.35,	0.99,	5.69,	1.10,	6.52,	1.24,	1.14,	0.49,	0.90,	0.41,	1.06,	0.53,	1.10,	0.53,	124.69,	291.31,	169.73,	280.03,	167.13,	274.43,	176.58,	304.00,	167.79
01/07/2015,	05:15:00,	18.92,	21.40,	1027.34,	47.65,	0.49,	1143.25,	678.60,	1579.33,	223.00,	4.63,	1.17,	4.49,	1.04,	5.90,	1.14,	6.45,	1.24,	1.19,	0.54,	0.97,	0.45,	1.03,	0.52,	1.13,	0.51,	124.76,	291.00,	169.42,	280.19,	167.76,	275.51,	177.40,	303.93,	167.43
01/07/2015,	05:30:00,	18.99,	21.30,	1027.16,	47.89,	0.47,	1141.85,	678.27,	1576.90,	223.61,	4.71,	1.10,	4.53,	1.03,	5.80,	1.15,	6.51,	1.25,	1.15,	0.54,	0.89,	0.39,	0.99,	0.50,	1.11,	0.51,	123.84,	291.12,	169.54,	280.07,	167.78,	273.90,	175.75,	304.01,	168.49
01/07/2015,	05:45:00,	18.97,	21.40,	1027.34,	47.81,	0.45,	1142.62,	679.18,	1579.28,	222.96,	4.62,	1.13,	4.52,	1.01,	5.75,	1.10,	6.49,	1.24,	1.18,	0.52,	0.84,	0.37,	1.01,	0.48,	1.11,	0.50,	124.03,	290.81,	170.17,	280.21,	167.73,	275.70,	177.48,	303.29,	167.04
01/07/2015,	06:00:00,	18.92,	21.40,	1027.28,	47.50,	0.44,	1138.66,	677.73,	1574.13,	222.65,	4.72,	1.13,	4.43,	0.99,	5.79,	1.10,	6.59,	1.28,	1.18,	0.51,	0.82,	0.38,	1.01,	0.49,	1.05,	0.47,	123.79,	289.85,	169.89,	279.83,	168.16,	273.83,	175.72,	302.35,	167.29
01/07/2015,	06:15:00,	18.99,	21.40,	1027.22,	48.05,	0.47,	1138.66,	677.21,	1573.48,	222.62,	4.65,	1.09,	4.55,	0.98,	5.87,	1.11,	6.47,	1.20,	1.16,	0.52,	0.94,	0.45,	1.04,	0.51,	1.12,	0.52,	124.05,	290.02,	168.76,	279.44,	167.92,	274.12,	176.40,	302.36,	167.41
01/07/2015,	06:30:00,	18.90,	21.40,	1027.40,	47.42,	0.49,	1141.68,	679.81,	1577.59,	224.13,	4.79,	1.13,	4.49,	1.02,	5.85,	1.10,	6.51,	1.28,	1.22,	0.55,	0.91,	0.43,	1.05,	0.52,	1.17,	0.55,	123.82,	291.19,	170.71,	280.33,	168.95,	274.39,	176.08,	303.21,	167.45
01/07/2015,	06:45:00,	19.02,	21.40,	1027.65,	47.83,	0.47,	1140.16,	677.84,	1575.65,	222.80,	4.71,	1.10,	4.55,	1.06,	5.64,	1.11,	6.47,	1.22,	1.17,	0.50,	0.86,	0.40,	1.04,	0.50,	1.09,	0.49,	124.46,	290.48,	170.23,	279.73,	167.64,	274.58,	176.25,	302.71,	167.00
01/07/2015,	07:00:00,	19.02,	21.40,	1027.40,	47.25,	0.44,	1139.04,	680.02,	1576.41,	223.28,	4.54,	1.09,	4.48,	0.99,	5.85,	1.20,	6.38,	1.23,	1.17,	0.47,	0.85,	0.39,	0.99,	0.48,	1.14,	0.53,	123.50,	290.46,	171.08,	279.82,	168.01,	273.42,	176.73,	302.58,	167.46
01/07/2015,	07:15:00,	18.95,	21.50,	1026.98,	47.68,	0.45,	1141.28,	680.09,	1578.65,	222.92,	4.64,	1.09,	4.54,	1.02,	5.81,	1.13,	6.60,	1.19,	1.12,	0.50,	0.95,	0.45,	1.01,	0.50,	1.10,	0.48,	124.32,	290.88,	170.52,	280.56,	168.02,	273.91,	177.52,	303.27,	167.30
01/07/2015,	07:30:00,	18.99,	21.40,	1027.47,	47.78,	0.47,	1139.31,	679.30,	1575.71,	223.26,	4.63,	1.07,	4.46,	0.94,	5.77,	1.12,	6.58,	1.17,	1.11,	0.50,	0.94,	0.43,	0.94,	0.47,	1.02,	0.49,	124.37,	290.93,	169.75,	280.19,	168.20,	273.87,	176.27,	301.59,	168.29
01/07/2015,	07:45:00,	19.02,	21.30,	1027.40,	47.71,	0.46,	1141.66,	679.72,	1578.12,	223.85,	4.51,	1.16,	4.47,	1.03,	5.87,	1.12,	6.44,	1.19,	1.17,	0.51,	0.90,	0.41,	0.97,	0.47,	1.14,	0.52,	124.01,	290.31,	170.43,	280.08,	167.68,	274.23,	176.92,	304.34,	168.04
01/07/2015,	08:00:00,	19.04,	21.40,	1027.53,	47.40,	0.45,	1142.31,	680.64,	1579.89,	223.45,	4.74,	1.14,	4.47,	1.07,	5.90,	1.12,	6.43,	1.20,	1.14,	0.49,	0.88,	0.41,	0.97,	0.50,	1.10,	0.51,	123.24,	291.79,	170.04,	280.26,	168.29,	275.58,	178.01,	302.08,	167.58
01/07/2015,	08:15:00,	19.02,	21.30,	1027.53,	47.16,	0.46,	1138.09,	677.31,	1573.13,	222.95,	4.63,	1.08,	4.48,	1.01,	5.73,	1.05,	6.27,	1.15,	1.11,	0.49,	0.85,	0.42,	0.98,	0.48,	1.12,	0.51,	123.01,	290.10,	169.69,	279.97,	167.80,	273.52,	176.00,	301.81,	167.02
01/07/2015,	08:30:00,	19.07,	21.40,	1027.40,	47.79,	0.45,	1140.87,	678.37,	1576.44,	223.42,	4.53,	1.10,	4.34,	0.97,	5.77,	1.05,	6.41,	1.26,	1.24,	0.52,	0.90,	0.43,	0.99,	0.51,	1.15,	0.52,	124.82,	291.18,	169.62,	279.26,	167.94,	274.31,	176.58,	303.50,	167.50
01/07/2015,	08:45:00,	19.07,	21.30,	1027.65,	47.86,	0.49,	1139.83,	677.71,	1574.84,	223.20,	4.62,	1.16,	4.56,	1.07,	5.76,	1.16,	6.47,	1.27,	1.17,	0.48,	0.94,	0.45,	1.04,	0.50,	1.17,	0.54,	124.34,	290.23,	169.58,	279.77,	167.64,	274.45,	176.92,	302.96,	166.90
01/07/2015,	09:00:00,	19.07,	21.30,	1027.71,	47.80,	0.48,	1140.47,	676.41,	1575.14,	222.23,	4.58,	1.08,	4.36,	1.00,	5.91,	1.13,	6.39,	1.15,	1.12,	0.49,	0.91,	0.45,	0.99,	0.47,	1.12,	0.48,	124.64,	291.02,	169.40,	280.11,	166.72,	273.88,	176.04,	302.82,	167.46
01/07/2015,	09:15:00,	19.09,	21.10,	1027.71,	47.45,	0.47,	1146.16,	680.79,	1582.71,	224.37,	4.66,	1.19,	4.61,	1.07,	5.92,	1.08,	6.56,	1.24,	1.18,	0.53,	0.95,	0.42,	1.05,	0.52,	1.16,	0.52,	123.63,	292.91,	169.92,	281.38,	168.94,	275.49,	177.22,	303.82,	168.05
01/07/2015,	09:30:00,	19.04,	21.20,	1027.95,	47.18,	0.48,	1144.16,	678.84,	1579.82,	223.70,	4.66,	1.15,	4.54,	1.08,	5.87,	1.14,	6.30,	1.19,	1.12,	0.49,	0.92,	0.42,	1.07,	0.52,	1.11,	0.51,	123.51,	292.23,	170.12,	280.94,	168.03,	274.19,	176.95,	304.15,	167.11
01/07/2015,	09:45:00,	19.04,	21.20,	1027.77,	47.83,	0.45,	1145.85,	678.80,	1582.25,	222.93,	4.63,	1.11,	4.35,	0.95,	5.74,	1.14,	6.55,	1.20,	1.12,	0.52,	0.95,	0.43,	1.07,	0.52,	1.03,	0.46,	123.70,	293.03,	170.78,	280.34,	167.92,	275.41,	176.32,	304.44,	167.10
01/07/2015,	10:00:00,	19.07,	21.00,	1028.20,	47.63,	0.42,	1148.19,	682.98,	1586.94,	224.73,	4.49,	1.04,	4.51,	0.98,	5.78,	1.07,	6.42,	1.20,	1.15,	0.49,	0.82,	0.37,	1.03,	0.49,	1.04,	0.47,	124.11,	292.03,	171.31,	282.41,	168.83,	275.42,	177.45,	305.56,	168.62
01/07/2015,	10:15:00,	19.14,	21.10,	1027.71,	47.52,	0.47,	1144.63,	678.41,	1581.25,	222.30,	4.65,	1.10,	4.39,	1.00,	5.81,	1.12,	6.49,	1.23,	1.14,	0.48,	0.94,	0.44,	0.97,	0.45,	1.08,	0.51,	123.79,	291.63,	169.42,	280.84,	167.88,	275.00,	176.55,	304.51,	167.89
01/07/2015,	10:30:00,	19.09,	21.10,	1027.89,	47.55,	0.46,	1142.80,	678.15,	1579.38,	222.02,	4.62,	1.10,	4.59,	1.06,	5.74,	1.08,	6.45,	1.20,	1.15,	0.47,	0.87,	0.41,	1.01,	0.51,	1.10,	0.51,	123.41,	290.46,	169.67,	281.14,	168.11,	273.79,	176.34,	304.83,	167.33
01/07/2015,	10:45:00,	19.09,	21.00,	1028.02,	47.17,	0.51,	1144.59,	677.49,	1578.97,	223.59,	4.71,	1.15,	4.60,	1.09,	5.85,	1.11,	6.40,	1.24,	1.14,	0.53,	0.89,	0.43,	1.03,	0.55,	1.13,	0.53,	123.86,	291.55,	169.40,	280.40,	167.30,	275.06,	176.67,	304.97,	167.54
01/07/2015,	11:00:00,	19.14,	20.90,	1028.14,	47.76,	0.47,	1143.23,	677.19,	1577.51,	223.05,	4.69,	1.12,	4.59,	1.10,	6.02,	1.17,	6.46,	1.22,	1.16,	0.50,	0.94,	0.41,	1.02,	0.50,	1.12,	0.52,	124.08,	290.84,	169.68,	280.26,	166.79,	274.90,	176.11,	304.59,	167.94
01/07/2015,	11:15:00,	19.14,	20.90,	1028.32,	47.54,	0.45,	1144.57,	679.12,	1580.29,	223.60,	4.60,	1.09,	4.56,	1.06,	5.86,	1.08,	6.56,	1.21,	1.12,	0.52,	0.93,	0.44,	1.04,	0.51,	1.13,	0.51,	123.57,	291.25,	170.25,	280.94,	168.53,	274.22,	176.02,	305.52,	167.52
01/07/2015,	11:30:00,	19.17,	21.00,	1028.14,	47.50,	0.44,	1142.42,	678.89,	1578.20,	223.52,	4.58,	1.12,	4.57,	1.02,	5.71,	1.00,	6.45,	1.24,	1.17,	0.53,	0.91,	0.42,	1.03,	0.49,	1.11,	0.49,	124.19,	290.53,	169.62,	280.18,	167.69,	274.17,	176.88,	304.66,	167.94
01/07/2015,	11:45:00,	19.09,	20.90,	1028.32,	47.37,	0.49,	1145.49,	679.10,	1581.68,	223.44,	4.68,	1.17,	4.60,	1.04,	5.93,	1.20,	6.45,	1.30,	1.16,	0.52,	0.93,	0.46,	0.97,	0.48,	1.10,	0.56,	123.24,	291.59,	170.12,	281.71,	168.04,	274.47,	176.80,	305.12,	167.62
01/07/2015,	12:00:00,	19.17,	20.90,	1028.32,	47.63,	0.45,	1144.61,	677.72,	1579.79,	222.92,	4.53,	1.02,	4.41,	1.01,	5.89,	1.05,	6.47,	1.24,	1.16,	0.52,	0.87,	0.39,	1.04,	0.48,	1.08,	0.48,	124.65,	290.57,	169.33,	281.36,	167.23,	275.78,	176.15,	304.28,	168.17
01/07/2015,	12:15:00,	19.14,	20.90,	1028.32,	47.60,	0.49,	1143.24,	678.77,	1578.93,	223.57,	4.58,	1.13,	4.55,	1.02,	5.77,	1.10,	6.45,	1.27,	1.16,	0.50,	0.88,	0.41,	1.07,	0.52,	1.11,	0.48,	123.84,	290.75,	169.96,	280.75,	167.49,	274.16,	176.72,	305.01,	167.86
01/07/2015,	12:30:00,	19.12,	20.90,	1028.63,	47.61,	0.48,	1143.86,	679.07,	1579.91,	223.66,	4.55,	1.12,	4.52,	1.05,	5.84,	1.12,	6.31,	1.18,	1.19,	0.54,	0.95,	0.45,	0.95,	0.46,	1.10,	0.51,	124.30,	291.36,	169.40,	280.64,	167.14,	274.38,	177.72,	304.97,	168.04
01/07/2015,	12:45:00,	19.07,	20.90,	1028.56,	47.49,	0.46,	1145.93,	679.04,	1581.73,	223.72,	4.53,	1.08,	4.48,	1.00,	5.78,	1.09,	6.53,	1.24,	1.15,	0.47,	0.82,	0.39,	0.95,	0.44,	1.12,	0.50,	124.18,	292.34,	169.86,	280.06,	167.84,	276.08,	177.75,	304.62,	166.90
01/07/2015,	13:00:00,	19.09,	20.90,	1028.50,	47.74,	0.46,	1141.04,	677.77,	1576.70,	222.64,	4.53,	1.10,	4.50,	1.03,	5.84,	1.11,	6.43,	1.20,	1.19,	0.54,	0.89,	0.43,	1.03,	0.49,	1.11,	0.50,	124.31,	290.63,	169.73,	279.99,	167.45,	273.88,	176.37,	304.03,	167.44
01/07/2015,	13:15:00,	19.14,	20.90,	1028.56,	47.48,	0.48,	1147.19,	677.71,	1582.38,	222.99,	4.67,	1.15,	4.41,	1.02,	5.81,	1.09,	6.44,	1.23,	1.18,	0.50,	0.91,	0.41,	1.01,	0.49,	1.09,	0.49,	123.54,	290.82,	169.83,	282.23,	167.77,	276.17,	176.20,	305.33,	167.18
01/07/2015,	13:30:00,	19.12,	20.90,	1028.32,	47.96,	0.46,	1147.52,	679.50,	1583.42,	223.95,	4.72,	1.12,	4.51,	1.07,	5.85,	1.11,	6.47,	1.22,	1.13,	0.47,	0.83,	0.38,	1.00,	0.51,	1.13,	0.53,	123.98,	291.70,	169.82,	282.99,	168.72,	275.40,	176.45,	304.88,	167.76
01/07/2015,	13:45:00,	19.12,	20.90,	1028.50,	47.54,	0.42,	1146.58,	678.93,	1582.12,	223.99,	4.54,	1.05,	4.44,	0.98,	5.84,	1.08,	6.26,	1.17,	1.16,	0.48,	0.84,	0.40,	0.98,	0.48,	1.12,	0.49,	123.65,	292.34,	169.90,	282.03,	167.66,	275.05,	177.28,	304.41,	167.35
01/07/2015,	14:00:00,	19.12,	20.90,	1028.32,	48.10,	0.46,	1148.86,	677.30,	1584.00,	222.62,	4.47,	1.11,	4.52,	1.00,	5.90,	1.07,	6.50,	1.20,	1.11,	0.47,	0.88,	0.41,	0.99,	0.49,	1.08,	0.50,	124.29,	292.92,	169.42,	282.07,	167.50,	275.22,	176.31,	306.06,	167.30
01/07/2015,	14:15:00,	19.09,	20.80,	1028.02,	47.40,	0.48,	1145.93,	676.73,	1580.83,	222.23,	4.66,	1.06,	4.58,	1.07,	5.81,	1.08,	6.38,	1.27,	1.13,	0.50,	0.89,	0.41,	1.04,	0.48,	1.10,	0.51,	123.64,	291.78,	169.47,	281.82,	166.97,	274.91,	176.15,	304.75,	167.44
01/07/2015,	14:30:00,	19.07,	20.80,	1027.89,	47.52,	0.44,	1153.04,	680.35,	1589.68,	223.97,	4.61,	1.03,	4.53,	1.02,	5.86,	1.15,	6.50,	1.23,	1.17,	0.51,	0.94,	0.44,	0.96,	0.46,	1.15,	0.47,	123.68,	293.56,	170.17,	283.00,	168.04,	276.48,	177.22,	307.42,	168.24
01/07/2015,	14:45:00,	19.09,	20.80,	1027.95,	47.54,	0.48,	1146.31,	678.73,	1581.87,	223.57,	4.58,	1.07,	4.54,	1.05,	5.85,	1.13,	6.50,	1.26,	1.16,	0.52,	0.88,	0.39,	1.02,	0.49,	1.11,	0.50,	124.03,	292.85,	170.30,	282.32,	167.91,	273.89,	176.75,	304.67,	167.07
01/07/2015,	15:00:00,	19.14,	20.80,	1027.77,	47.77,	0.46,	1146.85,	677.19,	1581.98,	222.56,	4.57,	1.08,	4.45,	0.99,	5.87,	1.15,	6.37,	1.25,	1.16,	0.50,	0.88,	0.38,	1.00,	0.50,	1.15,	0.54,	124.30,	291.77,	169.39,	281.48,	167.29,	275.41,	176.60,	305.56,	167.14
01/07/2015,	15:15:00,	19.04,	20.70,	1027.77,	47.78,	0.44,	1146.53,	678.18,	1582.19,	222.78,	4.62,	1.09,	4.54,	0.98,	5.80,	1.09,	6.62,	1.19,	1.14,	0.49,	0.80,	0.35,	0.98,	0.49,	1.05,	0.48,	124.12,	291.59,	169.73,	282.70,	168.09,	275.51,	176.90,	304.02,	166.67
01/07/2015,	15:30:00,	19.09,	20.70,	1027.53,	48.01,	0.48,	1151.65,	680.90,	1589.03,	223.65,	4.64,	1.08,	4.64,	1.06,	6.02,	1.18,	6.50,	1.25,	1.15,	0.52,	0.91,	0.43,	1.05,	0.51,	1.13,	0.51,	124.24,	292.86,	170.00,	283.66,	168.47,	277.28,	178.08,	305.27,	167.76
01/07/2015,	15:45:00,	19.04,	20.80,	1027.59,	48.01,	0.46,	1147.61,	676.95,	1582.24,	222.80,	4.68,	1.12,	4.57,	1.04,	5.69,	1.10,	6.40,	1.27,	1.15,	0.50,	0.91,	0.39,	0.98,	0.47,	1.12,	0.51,	124.70,	292.39,	169.54,	282.78,	167.17,	274.89,	176.36,	304.94,	167.17
01/07/2015,	16:00:00,	19.04,	20.80,	1027.71,	47.66,	0.47,	1150.73,	680.47,	1587.63,	223.97,	4.67,	1.09,	4.43,	1.04,	5.90,	1.15,	6.55,	1.30,	1.17,	0.52,	0.90,	0.40,	1.04,	0.49,	1.04,	0.47,	123.87,	293.76,	170.10,	282.73,	168.05,	276.10,	177.21,	305.53,	168.47
01/07/2015,	16:15:00,	19.14,	20.80,	1027.59,	48.04,	0.45,	1146.51,	680.48,	1583.88,	223.56,	4.58,	1.04,	4.49,	1.04,	5.83,	1.08,	6.45,	1.19,	1.11,	0.51,	0.90,	0.40,	0.98,	0.48,	1.10,	0.51,	124.37,	292.17,	170.76,	281.41,	167.71,	275.33,	177.29,	304.86,	167.99
01/07/2015,	16:30:00,	19.02,	20.80,	1027.71,	47.76,	0.44,	1148.13,	680.54,	1585.06,	224.05,	4.58,	1.11,	4.51,	1.01,	5.73,	1.04,	6.48,	1.20,	1.04,	0.45,	0.92,	0.42,	0.96,	0.44,	1.13,	0.48,	124.03,	291.90,	170.15,	282.27,	168.35,	276.01,	177.49,	305.23,	167.72
01/07/2015,	16:45:00,	19.09,	20.70,	1027.65,	47.85,	0.50,	1144.14,	678.58,	1580.54,	222.66,	4.71,	1.16,	4.46,	1.06,	5.72,	1.08,	6.46,	1.21,	1.16,	0.52,	0.94,	0.42,	1.02,	0.47,	1.15,	0.52,	124.21,	290.59,	169.19,	281.76,	167.65,	275.14,	177.38,	304.16,	167.60
01/07/2015,	17:00:00,	19.02,	20.70,	1027.47,	47.63,	0.50,	1152.20,	682.09,	1590.11,	224.68,	4.68,	1.17,	4.41,	1.05,	5.86,	1.17,	6.56,	1.30,	1.19,	0.53,	0.92,	0.41,	1.07,	0.53,	1.12,	0.54,	123.60,	293.05,	170.55,	283.88,	168.95,	276.94,	177.54,	305.82,	168.42
01/07/2015,	17:15:00,	19.07,	20.60,	1027.65,	47.49,	0.44,	1146.27,	679.28,	1582.82,	223.23,	4.60,	1.09,	4.55,	1.05,	5.76,	1.09,	6.38,	1.16,	1.08,	0.47,	0.93,	0.41,	1.02,	0.51,	1.09,	0.50,	123.81,	290.86,	169.90,	281.62,	168.24,	276.45,	176.81,	304.69,	167.59
01/07/2015,	17:30:00,	19.02,	20.60,	1027.53,	47.58,	0.44,	1148.80,	681.43,	1586.85,	223.52,	4.69,	1.08,	4.51,	1.01,	5.78,	1.09,	6.57,	1.20,	1.10,	0.48,	0.93,	0.40,	1.04,	0.48,	1.16,	0.53,	123.57,	292.15,	170.98,	282.72,	168.24,	275.99,	177.44,	305.33,	167.99
01/07/2015,	17:45:00,	18.97,	20.60,	1027.40,	47.59,	0.45,	1149.92,	680.02,	1586.32,	224.07,	4.60,	1.09,	4.59,	1.01,	5.87,	1.10,	6.35,	1.20,	1.12,	0.51,	0.90,	0.42,	0.99,	0.51,	1.11,	0.50,	124.59,	292.89,	169.79,	282.86,	168.57,	276.49,	177.58,	305.09,	167.33
01/07/2015,	18:00:00,	19.04,	20.60,	1027.53,	48.10,	0.45,	1147.45,	680.61,	1584.35,	223.97,	4.58,	1.12,	4.57,	1.01,	5.88,	1.09,	6.53,	1.19,	1.13,	0.52,	0.93,	0.43,	0.98,	0.48,	1.08,	0.49,	124.21,	292.96,	170.18,	281.93,	168.05,	275.16,	177.92,	304.73,	167.63
01/07/2015,	18:15:00,	18.95,	20.60,	1027.28,	47.52,	0.45,	1149.66,	680.91,	1586.74,	223.89,	4.70,	1.08,	4.60,	1.00,	5.86,	1.07,	6.47,	1.18,	1.17,	0.54,	0.94,	0.41,	0.98,	0.46,	1.11,	0.51,	124.12,	293.05,	170.56,	282.50,	167.96,	275.41,	177.02,	306.14,	168.51
01/07/2015,	18:30:00,	18.95,	20.60,	1027.65,	48.12,	0.47,	1149.18,	682.01,	1587.72,	224.27,	4.55,	1.13,	4.38,	1.03,	5.75,	1.08,	6.42,	1.26,	1.15,	0.52,	0.92,	0.42,	1.03,	0.49,	1.07,	0.52,	124.30,	292.25,	170.38,	282.67,	168.73,	276.25,	178.02,	305.49,	168.24
01/07/2015,	18:45:00,	18.95,	20.50,	1027.53,	48.13,	0.46,	1150.20,	681.24,	1588.41,	223.39,	4.70,	1.12,	4.45,	1.01,	5.91,	1.09,	6.42,	1.21,	1.12,	0.49,	0.88,	0.41,	1.03,	0.51,	1.09,	0.50,	124.63,	292.58,	170.09,	283.36,	168.41,	276.29,	177.03,	305.33,	169.06
01/07/2015,	19:00:00,	18.95,	20.40,	1027.47,	48.22,	0.46,	1149.61,	681.02,	1586.98,	223.89,	4.76,	1.14,	4.46,	1.05,	5.94,	1.12,	6.49,	1.23,	1.14,	0.50,	0.91,	0.41,	1.01,	0.48,	1.07,	0.48,	124.28,	292.13,	170.36,	282.22,	168.46,	277.28,	177.65,	305.44,	167.86
01/07/2015,	19:15:00,	18.92,	20.40,	1027.65,	47.84,	0.48,	1151.36,	681.24,	1589.12,	223.60,	4.80,	1.12,	4.52,	1.05,	5.94,	1.13,	6.41,	1.21,	1.16,	0.53,	0.94,	0.44,	1.03,	0.48,	1.10,	0.48,	124.18,	292.62,	170.28,	283.78,	168.30,	276.15,	177.96,	306.19,	167.96
01/07/2015,	19:30:00,	18.97,	20.50,	1027.40,	47.78,	0.49,	1150.10,	680.41,	1587.27,	223.47,	4.60,	1.13,	4.66,	1.07,	5.91,	1.11,	6.55,	1.25,	1.13,	0.52,	0.89,	0.42,	1.01,	0.50,	1.15,	0.53,	124.49,	292.16,	170.37,	283.63,	168.81,	275.93,	177.00,	305.84,	167.51
01/07/2015,	19:45:00,	18.97,	20.50,	1027.71,	47.85,	0.47,	1155.03,	682.93,	1593.89,	224.35,	4.63,	1.11,	4.56,	1.03,	5.85,	1.10,	6.49,	1.21,	1.15,	0.53,	0.88,	0.40,	1.00,	0.46,	1.10,	0.48,	124.76,	294.06,	170.90,	284.06,	169.19,	277.24,	177.64,	306.94,	168.45
01/07/2015,	20:00:00,	18.90,	20.50,	1027.65,	47.81,	0.47,	1150.04,	680.96,	1587.24,	224.22,	4.60,	1.11,	4.53,	1.07,	5.69,	1.05,	6.51,	1.19,	1.12,	0.52,	0.90,	0.44,	1.04,	0.49,	1.17,	0.49,	124.02,	294.08,	171.03,	282.15,	168.33,	275.37,	177.12,	305.82,	167.76
01/07/2015,	20:15:00,	18.87,	20.50,	1027.65,	48.04,	0.50,	1149.54,	680.74,	1586.60,	223.62,	4.74,	1.14,	4.69,	1.00,	5.95,	1.18,	6.64,	1.19,	1.12,	0.49,	0.93,	0.45,	0.93,	0.47,	1.13,	0.54,	124.95,	291.93,	169.86,	283.09,	168.61,	276.13,	177.34,	305.97,	168.15
01/07/2015,	20:30:00,	18.85,	20.50,	1027.47,	47.52,	0.50,	1150.14,	681.63,	1588.44,	223.45,	4.72,	1.12,	4.50,	1.04,	5.99,	1.15,	6.53,	1.21,	1.17,	0.55,	0.96,	0.47,	1.01,	0.50,	1.17,	0.53,	124.24,	293.33,	171.16,	282.53,	168.30,	276.97,	177.40,	304.84,	168.08
01/07/2015,	20:45:00,	18.85,	20.50,	1027.89,	47.76,	0.50,	1148.40,	680.51,	1586.01,	223.38,	4.47,	1.08,	4.55,	1.04,	5.90,	1.09,	6.48,	1.24,	1.13,	0.51,	0.94,	0.45,	1.04,	0.49,	1.10,	0.55,	124.57,	293.53,	170.70,	282.04,	168.35,	274.71,	177.66,	305.60,	167.14
01/07/2015,	21:00:00,	18.80,	20.40,	1027.47,	48.06,	0.47,	1153.71,	682.31,	1592.01,	224.48,	4.72,	1.12,	4.49,	1.06,	5.84,	1.07,	6.27,	1.16,	1.17,	0.53,	0.90,	0.39,	1.03,	0.49,	1.10,	0.52,	124.28,	293.42,	170.72,	283.49,	168.58,	276.71,	177.94,	307.54,	168.27
01/07/2015,	21:15:00,	18.85,	20.40,	1027.83,	47.91,	0.50,	1148.18,	679.76,	1585.23,	223.24,	4.67,	1.13,	4.53,	1.01,	5.80,	1.14,	6.33,	1.21,	1.17,	0.51,	0.92,	0.42,	1.00,	0.50,	1.10,	0.50,	124.75,	292.43,	170.44,	282.50,	167.45,	276.05,	177.35,	304.70,	167.81
01/07/2015,	21:30:00,	18.77,	20.40,	1028.08,	48.12,	0.46,	1150.00,	679.41,	1586.41,	223.11,	4.64,	1.07,	4.41,	0.95,	5.95,	1.10,	6.42,	1.16,	1.14,	0.50,	0.92,	0.41,	1.06,	0.49,	1.11,	0.48,	124.44,	292.93,	169.36,	283.47,	168.19,	275.95,	177.26,	304.96,	167.80
01/07/2015,	21:45:00,	18.77,	20.50,	1028.02,	47.87,	0.48,	1158.06,	683.09,	1596.18,	225.16,	4.77,	1.17,	4.61,	1.04,	6.01,	1.18,	6.37,	1.20,	1.17,	0.54,	0.92,	0.45,	1.02,	0.52,	1.17,	0.55,	124.21,	295.19,	171.25,	284.32,	168.47,	277.57,	178.03,	308.55,	168.71
01/07/2015,	22:00:00,	18.75,	20.50,	1028.38,	48.04,	0.46,	1148.69,	680.49,	1586.55,	222.96,	4.59,	1.11,	4.48,	1.04,	5.85,	1.07,	6.55,	1.20,	1.09,	0.46,	0.85,	0.37,	1.04,	0.50,	1.11,	0.52,	125.22,	292.99,	170.01,	281.78,	167.88,	276.07,	178.19,	305.18,	167.67
01/07/2015,	22:15:00,	18.80,	20.40,	1028.56,	47.78,	0.50,	1147.57,	678.87,	1583.46,	223.08,	4.69,	1.14,	4.61,	1.05,	5.97,	1.12,	6.62,	1.28,	1.16,	0.53,	0.87,	0.39,	1.00,	0.50,	1.09,	0.49,	123.75,	292.37,	170.10,	282.29,	167.60,	275.47,	176.84,	305.01,	167.65
01/07/2015,	22:30:00,	18.77,	20.40,	1028.63,	47.65,	0.46,	1147.28,	680.28,	1584.73,	223.42,	4.59,	1.11,	4.50,	1.03,	5.81,	1.10,	6.38,	1.22,	1.13,	0.50,	0.94,	0.45,	0.99,	0.47,	1.11,	0.51,	123.80,	292.37,	170.42,	281.98,	168.68,	275.00,	176.79,	305.28,	167.66
01/07/2015,	22:45:00,	18.77,	20.40,	1028.75,	47.40,	0.44,	1150.50,	679.91,	1587.05,	223.95,	4.58,	1.07,	4.50,	0.99,	5.76,	1.07,	6.30,	1.15,	1.12,	0.50,	0.89,	0.39,	0.95,	0.46,	1.07,	0.49,	123.50,	292.45,	169.30,	283.30,	167.77,	275.83,	177.57,	306.18,	168.44